Regional Weather Roundup
Issued by NWS

Home | Current Version | Previous Version | Graphics & Text | Print | Product List | Glossary Off
Versions: 1 2 3 4 5 6 7 8 9 10 11 12 13 14 15 16 17 18 19 20 21 22 23 24 25 26 27 28 29 30 31 32 33 34 35 36 37 38 39 40 41 42 43 44 45 46 47 48 49 50

000
ASUS43 KMKX 240500
RWRWI

WISCONSIN REGIONAL WEATHER ROUNDUP
NATIONAL WEATHER SERVICE MILWAUKEE/SULLIVAN WI
1200 AM CDT TUE OCT 24 2017

NOTE: "FAIR" INDICATES FEW OR NO CLOUDS BELOW 12,000 FEET WITH NO
SIGNIFICANT WEATHER AND/OR OBSTRUCTIONS TO VISIBILITY.

WIZ001-002-006>008-014>016-023>028-240600-
NORTHWEST WISCONSIN

CITY           SKY/WX    TMP DP  RH WIND       PRES   REMARKS
SUPERIOR ARPT  CLOUDY    45  35  67 N14       29.82S
ASHLAND        CLOUDY    45  37  73 NW12G22   29.74F
HAYWARD        CLOUDY    44  35  70 N12G21    29.75F
SIREN          CLOUDY    44  32  61 N12G28    29.81F
CUMBERLAND     CLOUDY    43  32  65 N18G24    29.77F
RICE LAKE      CLOUDY    45  35  68 NW12G22   29.77F
CHETEK         CLOUDY    45  38  78 NW9G23    29.75F
LADYSMITH      CLOUDY    47  39  75 NW16G24   29.72S
EAU CLAIRE     NOT AVBL
MENOMONIE      CLOUDY    47  38  72 NW13G24   29.76F
NEW RICHMOND   CLOUDY    45  31  58 NW18      29.81S
OSCEOLA        CLOUDY    46  32  58 NW13      29.84F
$$

WIZ003>005-009-010-017-018-240600-
NORTH CENTRAL WISCONSIN

CITY           SKY/WX    TMP DP  RH WIND       PRES   REMARKS
MANITOWISH WTR LGT RAIN  43  43 100 NW18G26   29.64F
ARBOR VITAE    RAIN      46  44  93 N14       29.62F
WOODRUFF       RAIN      46  44  93 N14       29.62F
RHINELANDER    LGT RAIN  46  46 100 NW14G21   29.60S
EAGLE RIVER    LGT RAIN  46  46  98 N17       29.59F
LAND O LAKES   DRIZZLE   47  44  89 NW10G21   29.61F
PHILLIPS       LGT RAIN  42  42  98 NW16      29.66F
TOMAHAWK       LGT RAIN  45  43  93 NW15G22   29.62F
MEDFORD        RAIN      45  43  95 NW15      29.63F
MERRILL        LGT RAIN  47  46  97 N17G25    29.60F
$$

WIZ029-030-035-036-043>047-240600-
CENTRAL WISCONSIN

CITY           SKY/WX    TMP DP  RH WIND       PRES   REMARKS
WAUSAU         LGT RAIN  47  45  93 NW16G24   29.57F
MOSINEE        LGT RAIN  46  45  93 NW13G18   29.60F
MARSHFIELD     LGT RAIN  46  43  89 NW18G28   29.61F
STEVENS POINT  LGT RAIN  47  47 100 NW9G17    29.59F
WAUPACA        CLOUDY    52  49  92 NW10      29.55F
WAUTOMA        LGT RAIN N/A N/A N/A NW15      29.56F
WISC RAPIDS    LGT RAIN  48  45  89 NW15G22   29.61F
CAMP DOUGLAS   LGT RAIN  46  45  93 NW14      29.63F
$$

WIZ011>013-019>022-031-037>040-048>050-240600-
NORTHEAST WISCONSIN

CITY           SKY/WX    TMP DP  RH WIND       PRES   REMARKS
ANTIGO         CLOUDY    47  46  95 NW14G20   29.56F
SHAWANO        CLOUDY    50  45  83 W7        29.52F
OCONTO         CLOUDY    46  45  93 W6        29.50F
STURGEON BAY   NOT AVBL
GREEN BAY      CLOUDY    48  48 100 W3        29.51F
MANITOWOC      CLOUDY    48  46  93 W5        29.51F
APPLETON       CLOUDY    48  43  81 W10       29.52F
CLINTONVILLE   CLOUDY    50  45  81 NW10      29.53F
OSHKOSH        CLOUDY    50  47  89 NW12      29.52F
$$

WIZ032>034-041-042-053>061-240600-
SOUTHWEST WISCONSIN

CITY           SKY/WX    TMP DP  RH WIND       PRES   REMARKS
LA CROSSE      CLOUDY    50  40  68 NW20G32   29.70F
SPARTA         LGT RAIN  45  44  95 W10G17    29.69F
VIROQUA        CLOUDY    46  42  84 NW20      29.68F
BOSCOBEL       CLOUDY    51  42  71 NW12      29.68F
PRAIRIE DU CHI CLOUDY    49  38  67 NW13G18   29.71F
PLATTEVILLE    MOCLDY    47  44  90 W9        29.67F
$$

WIZ056-057-062-063-064-067-068-240600-
SOUTH CENTRAL WISCONSIN

CITY           SKY/WX    TMP DP  RH WIND       PRES   REMARKS
REEDSBURG      DRIZZLE   46  46 100 W12G17    29.63F
BARABOO/DELLS  LGT RAIN  46  44  90 NW13G18   29.61F
LONE ROCK      LGT RAIN  49  44  83 NW17      29.65F
MINERAL POINT  CLOUDY    50  45  81 NW12G20   29.65F
MADISON        RAIN      48  45  89 W9        29.59F
MIDDLETON      CLOUDY    49  46  92 NW13G21   29.62F
WATERTOWN      DRIZZLE   48  48 100 W12       29.57F
MONROE         DRIZZLE   46  41  81 W15G21    29.63F
JANESVILLE     DRIZZLE   48  48 100 W9        29.61F
$$

WIZ051-052-058>065-066-070>072-240600-
SOUTHEAST WISCONSIN

CITY           SKY/WX    TMP DP  RH WIND       PRES   REMARKS
MILWAUKEE      CLOUDY    53  47  79 NW14G23   29.54F
WAUKESHA       DRIZZLE   46  45  93 W13       29.56F
MILWAUKEE/TIMM CLOUDY    50  43  76 W12       29.55F
RACINE         CLOUDY    51  46  83 W10       29.55F
BURLINGTON     DRIZZLE   48  48 100 W14       29.57F
KENOSHA        LGT RAIN  51  46  83 W13       29.55F
FOND DU LAC    CLOUDY    50  45  83 W13       29.53F
SHEBOYGAN      CLOUDY    48  47  96 CALM      29.51F
WEST BEND      CLOUDY    50  45  81 W12       29.53F
JUNEAU         DRIZZLE   48  47  95 W3        29.56F
$$

LSZ147-162-240600-
LAKE SUPERIOR

STATION/POSITION TIME  TEMP    WIND        PRES    WAVE
                       AIR SEA DIR/SP/G            HT/PER
                 (UTC) (F)     (DEG/KT/KT) (MB)    (FT/S)
W MID LAKE BUOY  0350   50 51              1004.5F   3/ 4
DEVILS ISLAND    0400   46     320/ 25/ 27 1007.7S
PORT WING        0440          320/ 17/ 23 1008.8F
SAXON HARBOR     0430   49     330/ 20/ 27 1006.1F
$$

LMZ867-665-643>646-240600-
LAKE MICHIGAN

STATION/POSITION TIME  TEMP    WIND        PRES    WAVE
                       AIR SEA DIR/SP/G            HT/PER
                 (UTC) (F)     (DEG/KT/KT) (MB)    (FT/S)
S GREEN BAY BUOY 0430   51 58  310/  8/ 12  999.5F
N MID LAKE BUOY  0350   53 57  330/ 17/ 19  998.4F   3/ 4
NORTHPORT PIER   0440   53     320/ 17/ 19  998.0F
KEWAUNEE LAKESHO 0430   49     310/  2/  4  998.5F
SHEBOYGAN LAKESH 0400   50     280/  5/  6 1000.1F
PORT WASHINGTON  0440   52     280/  3/  8 1001.0F
MILWAUKEE LAKESH 0430   53     290/  8/ 10   N/A
S MID LAKE BUOY  0350   54 60  300/ 12/ 14 1000.7F   2/ 5
KENOSHA   LAKESH 0400   53     280/ 12/ 16 1001.4
$$

TC  - TEMPERATURE IN CELSIUS
VSB - VISIBILITY IN STATUTE MILES
WCI - WIND CHILL INDEX
HX  - HEAT INDEX




USA.gov is the U.S. government's official web portal to all federal, state and local government web resources and services.